Torna al catalogo

ERS 9

LostScienzaPO
NORAD 635·PAYLOAD·🇺🇸 United States

Lanciato Jul 19, 1963 da Vandenberg Space Force Base

Loading…

Prossimi Passaggi (prossime 24 ore)

TLE

ObsoletoSource: Space-Track

Epoca: Oct 8, 2025, 10:11 UTC

1 00635U 63030B   25281.42451812 -.00000018  00000-0 -10374-1 0  9998
2 00635  88.4228 228.9160 0044348 284.1662  75.4263  8.57948362948851

Traccia ERS 9 in tempo reale con AllMySat

Download on the App Store